Simultaneous Nadir Overpasses (SNOs) Predictions

Prediction of SNOs between AQUA and NOAA-19 Satellite Orbit:

Table of predicted SNOs for the next 14.0 days since TLE Epoch: 1/24/2020
Index Date (AQUA) Time (AQUA) Lat,Lon (AQUA) SZA (AQUA ) Date (NOAA-19) Time (NOAA-19) Lat,Lon (NOAA-19) SZA (NOAA-19 ) Distance(km) Time Diff (sec)
1 01/26/2020 10:36:25 80.02, -9.93 100.38 01/26/2020 10:36:26 80.02, -10.04 100.39 2.01 1
2 01/28/2020 16:10:09 -80.00, 86.79 80.22 01/28/2020 16:09:45 -80.02, 86.74 80.18 2.81 24
3 01/28/2020 16:59:37 80.05,-105.97 99.86 01/28/2020 17:00:46 80.03,-105.86 99.81 2.63 69
4 01/30/2020 21:43:54 80.01,-176.75 99.22 01/30/2020 21:43:07 80.01,-176.72 99.24 0.82 47
5 01/30/2020 22:33:21 -80.02, -9.22 80.77 01/30/2020 22:34:06 -80.02, -9.22 80.79 0.07 45
6 02/02/2020 03:17:38 -79.99, -79.99 81.44 02/02/2020 03:16:27 -80.01, -79.91 81.40 2.85 71
7 02/02/2020 04:07:05 80.01, 87.47 98.59 02/02/2020 04:07:27 80.02, 87.42 98.60 1.18 22
8 02/04/2020 09:40:50 -80.02,-176.04 82.04 02/04/2020 09:40:48 -80.01,-175.90 82.06 2.87 2
9 02/06/2020 15:14:34 80.01, -79.44 97.29 02/06/2020 15:14:08 79.99, -79.36 97.28 2.77 26




NCC Satellite Simultaneous Nadir Overpasses (SNOs) Prediction Service
